Location: Birkenwerder
(52.6919°N, 13.2774°E)
Time: 22:10:11
(UTC+00:00)

Cosmos 1570 Rocket - Visible Passes

Search period start: 01 October 2020 00:00
Search period end: 11 October 2020 00:00
Orbit: 762 x 789 km, 74.1° (Epoch: 01 October)

Date Brightness Start Highest point End Pass type
(mag) Time Alt. Az. Time Alt. Az. Time Alt. Az.
01 Oct 6.5 00:37:14 14° E 00:37:14 14° E 00:39:50 10° ENE visible
01 Oct 4.0 02:17:41 64° S 02:18:27 78° ESE 02:23:50 10° NNE visible
01 Oct 5.3 03:58:08 15° W 04:01:18 25° NW 04:05:42 10° N visible
02 Oct 4.6 01:43:55 52° E 01:43:55 52° E 01:48:57 10° NNE visible
02 Oct 4.9 03:24:22 26° W 03:26:13 33° NW 03:31:06 10° NNE visible
03 Oct 5.5 01:10:06 33° E 01:10:06 33° E 01:13:58 10° NE visible
03 Oct 4.4 02:50:32 43° WNW 02:51:14 46° NW 02:56:26 10° NNE visible
03 Oct 6.0 04:32:12 10° WNW 04:34:56 14° NNW 04:37:39 10° N visible
04 Oct 6.2 00:36:15 21° ENE 00:36:15 21° ENE 00:38:48 10° NE visible
04 Oct 4.1 02:16:41 64° NW 02:16:41 64° NW 02:21:43 10° NNE visible
04 Oct 5.8 03:57:08 13° WNW 03:59:40 18° NW 04:03:14 10° N visible
05 Oct 6.7 00:02:22 13° ENE 00:02:22 13° ENE 00:03:18 10° ENE visible
05 Oct 4.6 01:42:48 54° NNE 01:42:48 54° NNE 01:46:56 10° NNE visible
05 Oct 5.4 03:23:15 21° WNW 03:24:29 23° NW 03:28:43 10° N visible
06 Oct 5.5 01:08:53 35° NE 01:08:53 35° NE 01:12:05 10° NNE visible
06 Oct 5.1 02:49:19 30° NW 02:49:24 30° NW 02:54:08 10° NNE visible
06 Oct 6.2 04:32:44 10° NNW 04:33:32 10° NNW 04:34:20 10° NNW visible
07 Oct 6.2 00:34:57 23° NE 00:34:57 23° NE 00:37:07 10° NE visible
07 Oct 5.0 02:15:23 37° NNW 02:15:23 37° NNW 02:19:29 10° NNE visible
07 Oct 6.1 03:55:49 10° WNW 03:58:10 13° NNW 04:00:34 10° N visible
08 Oct 6.7 00:00:59 15° NE 00:00:59 15° NE 00:02:02 10° NE visible
08 Oct 5.2 01:41:25 37° N 01:41:25 37° N 01:44:46 10° NNE visible
08 Oct 5.8 03:21:51 15° NW 03:22:54 16° NW 03:26:13 10° N visible
09 Oct 5.8 01:07:26 29° NNE 01:07:26 29° NNE 01:10:01 10° NNE visible
09 Oct 5.6 02:47:51 21° NW 02:47:51 21° NW 02:51:43 10° N visible
10 Oct 6.3 00:33:25 21° NNE 00:33:25 21° NNE 00:35:11 10° NNE visible
10 Oct 5.6 02:13:51 25° NNW 02:13:51 25° NNW 02:17:09 10° N visible
